Location: Newark
(45.5667°N, 9.1667°E)
Time: 05:19:11
(UTC+00:00)

ISS - Visible Passes

Search period start: 13 November 2019 00:00
Search period end: 23 November 2019 00:00
Orbit: 412 x 421 km, 51.6° (Epoch: 13 November)

Date Brightness Start Highest point End Pass type
(mag) Time Alt. Az. Time Alt. Az. Time Alt. Az.
13 Nov -1.6 04:48:32 15° SW 04:48:32 15° SW 04:50:06 10° S visible
14 Nov -0.8 04:02:37 10° SSE 04:02:37 10° SSE 04:02:38 10° SSE visible
21 Nov -1.2 18:14:42 10° SW 18:15:39 17° SSW 18:15:39 17° SSW visible
22 Nov -2.6 17:26:37 10° SSW 17:29:25 28° SE 17:29:25 28° SE visible
